EST,Max TemperatureF,Mean TemperatureF,Min TemperatureF,Max Dew PointF,MeanDew PointF,Min DewpointF,Max Humidity, Mean Humidity, Min Humidity, Max Sea Level PressureIn, Mean Sea Level PressureIn, Min Sea Level PressureIn, Max VisibilityMiles, Mean VisibilityMiles, Min VisibilityMiles, Max Wind SpeedMPH, Mean Wind SpeedMPH, Max Gust SpeedMPH,PrecipitationIn, CloudCover, Events, WindDirDegrees
2013-11-1,66,54,42,61,53,38,100,82,46,29.73,29.48,29.34,10,7,1,20,7,32,0.95,6,Rain,214
2013-11-2,64,51,39,45,40,38,93,67,45,29.77,29.64,29.58,10,10,7,8,4,,0.06,3,Rain,250
2013-11-3,44,36,30,37,21,12,81,52,31,30.43,30.11,29.79,10,10,10,12,7,17,0.00,4,,12
2013-11-4,42,30,17,18,14,11,92,59,31,30.74,30.64,30.47,10,10,10,8,4,,0.00,0,,346
2013-11-5,46,31,16,27,21,13,92,73,39,30.73,30.62,30.48,10,10,10,8,1,,0.02,0,,221
2013-11-6,57,42,26,42,34,23,92,73,51,30.46,30.26,29.96,10,10,10,10,2,18,0.00,1,,201
2013-11-7,55,47,39,54,42,22,97,74,49,29.91,29.76,29.66,10,10,7,17,5,30,0.08,6,Rain,266
2013-11-8,45,39,33,24,21,18,61,51,40,30.01,29.88,29.79,10,10,9,14,7,25,0.00,5,Snow,290
2013-11-9,42,38,33,31,21,17,92,56,38,30.13,30.09,30.02,10,9,3,13,7,23,0.00,5,Snow,270
2013-11-10,42,37,32,37,32,30,96,91,76,30.02,29.85,29.72,10,7,1,5,1,,0.05,6,Snow,278
2013-11-11,44,40,36,31,26,23,73,60,45,30.03,29.93,29.79,10,10,10,17,9,29,0.00,3,,255
2013-11-12,41,34,27,30,17,11,70,54,42,30.13,30.01,29.82,10,10,10,15,10,29,0.00,2,,281
2013-11-13,33,22,12,16,10,6,84,51,34,30.24,30.17,30.06,10,10,10,13,6,20,0.00,0,,255
2013-11-14,48,38,26,26,22,16,85,55,39,30.08,30.02,29.98,10,10,10,9,3,,0.00,0,,248
2013-11-15,52,36,21,29,22,19,92,73,30,30.20,30.13,30.09,10,10,10,5,1,,0.00,0,,314
2013-11-16,57,41,25,28,24,20,89,66,23,30.35,30.29,30.19,10,10,10,5,1,,0.00,2,,104
2013-11-17,37,29,21,37,32,19,100,94,85,30.36,30.18,29.92,10,4,1,5,0,,0.20,7,Rain-Snow,282
2013-11-18,61,49,37,49,38,27,100,82,39,29.90,29.63,29.46,10,5,1,14,2,32,0.54,6,Rain,255
2013-11-19,45,36,28,27,16,13,52,47,39,30.26,29.93,29.57,10,10,10,20,11,34,0.00,4,,291
2013-11-20,41,28,15,13,10,3,88,55,21,30.64,30.51,30.29,10,10,10,15,4,22,0.00,0,,317
2013-11-21,46,29,12,20,12,5,88,56,20,30.64,30.52,30.33,10,10,10,5,1,,0.00,0,,214
2013-11-22,35,30,26,34,29,17,100,88,61,30.32,30.01,29.76,10,6,0,4,0,,0.04,7,Fog-Rain-Snow,35
2013-11-23,39,32,25,34,23,13,96,72,38,29.87,29.75,29.68,10,7,0,17,6,28,0.03,4,Fog-Snow,290
2013-11-24,24,20,16,10,2,-2,65,47,40,30.09,29.85,29.72,10,10,8,23,15,41,0.00,4,Snow,288
2013-11-25,28,22,15,8,-2,-6,49,35,24,30.27,30.23,30.12,10,10,10,17,10,33,0.00,1,,245
2013-11-26,34,30,26,29,25,10,96,84,47,30.29,30.22,30.14,10,4,1,9,3,18,0.18,8,Snow,222
2013-11-27,41,36,30,40,34,26,100,94,65,30.12,29.45,29.19,10,3,0,9,2,20,2.49,8,Fog-Rain,331
2013-11-28,36,28,19,26,10,2,67,51,36,30.39,29.94,29.37,10,10,10,17,12,31,0.00,2,,283
2013-11-29,27,15,3,8,3,-1,84,56,33,30.76,30.57,30.39,10,10,10,10,5,21,0.00,0,,320
2013-11-30,28,14,0,17,6,-6,83,64,36,30.83,30.68,30.43,10,10,10,8,2,,0.00,2,,179